Regional Weather Roundup
Issued by NWS

Home | Current Version | Previous Version | Text Only | Print | Product List | Glossary On
Versions: 1 2 3 4 5 6 7 8 9 10 11 12 13 14 15 16 17 18 19 20 21 22 23 24 25 26 27 28 29 30 31 32 33 34 35 36 37 38 39 40 41 42 43 44 45 46 47 48 49 50
000
ASUS43 KBIS 192010
RWRND

NORTH DAKOTA REGIONAL WEATHER ROUNDUP
NATIONAL WEATHER SERVICE BISMARCK ND
200 PM CST MON FEB 19 2018

NOTE: "FAIR" INDICATES FEW OR NO CLOUDS BELOW 12,000 FEET WITH NO
SIGNIFICANT WEATHER AND/OR OBSTRUCTIONS TO VISIBILITY.


NDZ001>003-009>011-017-192100-
NORTHWEST NORTH DAKOTA

CITY           SKY/WX    TMP DP  RH WIND       PRES   REMARKS
WILLISTON      CLOUDY     5  -5  63 CALM      30.16F
MINOT          CLOUDY     8  -4  58 W3        30.19S
MINOT AFB      CLOUDY     6  -6  59 SW5       30.19S WCI  -3
$$

NDZ018>021-031>035-040>046-192100-
SOUTHWEST NORTH DAKOTA

CITY           SKY/WX    TMP DP  RH WIND       PRES   REMARKS
BISMARCK       CLOUDY     7  -5  57 NE13      30.17F WCI  -9
DICKINSON      LGT SNOW   4  -7  60 NE7       30.05F WCI  -8
GARRISON         N/A      4  -7  60 W5        30.17F WCI  -5
HETTINGER ARPT LGT SNOW   3  -4  72 NE9       30.05F VSB 1   WCI -12
$$

NDZ004>008-012>016-024-026-027-054-192100-
NORTHEAST NORTH DAKOTA

CITY           SKY/WX    TMP DP  RH WIND       PRES   REMARKS
GRAND FORKS    CLOUDY     6  -5  60 N18       30.23F WCI -13
GRND FRKS AFB  FAIR       4  -7  60 N15       30.23F WCI -14
DEVILS LAKE    FAIR       3  -8  60 N6        30.21S WCI  -8
$$

NDZ022-023-025-028>030-036>039-047>053-192100-
SOUTHEAST NORTH DAKOTA

CITY           SKY/WX    TMP DP  RH WIND       PRES   REMARKS
FARGO          CLOUDY    10   2  69 N18       30.15S WCI  -8
JAMESTOWN      CLOUDY     7  -4  60 NE18      30.15S WCI -12
$$





USA.gov is the U.S. government's official web portal to all federal, state and local government web resources and services.